Tracking 28126 objects as of 2-Oct-2023
HD Live streaming from Space Station
objects crossing your sky now

STARLINK-2558

Track STARLINK-2558 now!
10-day predictions
STARLINK-2558 is classified as:


NORAD ID: 48282
Int'l Code: 2021-036G
Perigee: 553.5 km
Apogee: 555.2 km
Inclination: 53.1 °
Period: 95.6 minutes
Semi major axis: 6925 km
RCS: Unknown
Launch date: April 29, 2021
Source: United States (US)
Launch site: AIR FORCE EASTERN TEST RANGE (AFETR)
Your satellite tracking list
Your tracking list is empty




NASA's NSSDC Master Catalog

Two Line Element Set (TLE):
1 48282U 21036G   23274.82384468  .00001612  00000-0  12709-3 0  9999
2 48282  53.0531 116.3821 0001241  91.8583 268.2548 15.06408360134193
Source of the keplerian elements: AFSPC